x

9442396 - La Push, Wa (lapw1) Weather Station

3:36 - Sat 25th Feb 2017 All times are PST. -8 hours from GMT.

  • Wind
    11mph, 15mph gusts
  • Sea Temp 40°f
  • Air Temp 42°f
  • Sea Pressure 1020.4mb
  • 9442396 - La Push, Wa
  • 9442396 - La Push, Wa

More Historic Weather Station data

Upgrade to MSW Pro to gain access to the past 30 days of data for over 8000 Wavebouys and Weather Stations around the globe.

Join Pro

Comparision Forecast

View Surf forecast
   
sam. 02/25 3:36 11 15 mph 1020.4mb 40f 42f
3:30 10 14 mph 1020.5mb 40f 42f
3:24 13 15 mph 1020.7mb 40f 41f
3:18 11 15 mph 1020.8mb 40f 40f
3:12 11 18 mph 1020.9mb 40f 40f
3:06 15 20 mph 1021.1mb 41f 40f
3:00 10 18 mph 1021mb 41f 40f
2:36 8 13 mph 1021.3mb 43f 41f
2:30 9 11 mph 1021.4mb 44f 41f
2:24 9 10 mph 1021.7mb 45f 40f
2:18 6 10 mph 1021.7mb 45f 40f
2:12 8 14 mph 1021.8mb 46f 40f
2:06 8 13 mph 1022mb 46f 40f
2:00 11 14 mph 1022.1mb 46f 40f
1:36 7 10 mph 1022.1mb 46f 41f
1:30 7 9 mph 1022.3mb 46f 41f
1:24 7 8 mph 1022.4mb 46f 41f
1:18 6 7 mph 1022.6mb 46f 41f
1:12 6 7 mph 1022.7mb 46f 41f
1:06 5 8 mph 1022.9mb 46f 40f
1:00 5 6 mph 1023mb 46f 40f
12:36  -  2 mph 1023.4mb 46f 40f
12:30 1 3 mph 1023.5mb 46f 39f
12:24 3 5 mph 1023.7mb 46f 39f
12:18 2 5 mph 1023.7mb 46f 39f
12:12 3 6 mph 1023.8mb 46f 38f
12:06 3
mph
1023.8mb 46f 39f
12:00 2 15 mph 1024mb 46f 39f
11:36 7 10 mph 1024.1mb 46f 41f
11:30 8 11 mph 1024mb 46f 41f
11:24 9 10 mph 1024mb 46f 41f
11:18 7 9 mph 1024mb 46f 41f
11:12 6 7 mph 1024.1mb 46f 40f
11:06  -  2 mph 1024.2mb 46f 39f
11:00 1 2 mph 1024.2mb 46f 39f
10:36 3 5 mph 1024.3mb 46f 37f
10:30 3 6 mph 1024.3mb 46f 37f
10:24 3 7 mph 1024.3mb 46f 36f
10:18 6 7 mph 1024.4mb 46f 35f
10:12 6 7 mph 1024.4mb 46f 35f
10:06 6 8 mph 1024.4mb 46f 35f
10:00 7 9 mph 1024.5mb 46f 34f
9:36 7 8 mph 1024.8mb 46f 33f
9:30 7 9 mph 1024.9mb 46f 33f
9:24 6 9 mph 1024.9mb 46f 32f
9:18 7 9 mph 1025mb 46f 32f
9:12 8 10 mph 1025mb 45f 32f
9:06 8 10 mph 1025.1mb 45f 32f
9:00 8 10 mph 1025.1mb 45f 31f
8:36 8 10 mph 1025.2mb 46f 30f
8:30 8 10 mph 1025.2mb 46f 30f
8:24 8 10 mph 1025.2mb 46f 30f
8:18 8 10 mph 1025.3mb 46f 30f
8:12 8 9 mph 1025.3mb 46f 30f
8:06 7 9 mph 1025.3mb 46f 30f
8:00 7 9 mph 1025.3mb 46f 29f
7:36 8 9 mph 1025.3mb 45f 29f
7:30 8 10 mph 1025.2mb 44f 29f
7:24 8 9 mph 1025.3mb 44f 29f
7:18 8 9 mph 1025.3mb 43f 29f
7:12 7 9 mph 1025.2mb 42f 29f
7:06 8 9 mph 1025.2mb 41f 29f
7:00 7 8 mph 1025.1mb 40f 29f
6:36 7 8 mph 1025.1mb 40f 30f
6:30 7 8 mph 1025.1mb 40f 30f
6:24 7 9 mph 1025.1mb 39f 30f
6:18 7 9 mph 1025.1mb 39f 30f
6:12 6 8 mph 1025.1mb 39f 30f
6:06 7 8 mph 1025.1mb 39f 30f
6:00 7 9 mph 1025.1mb 39f 30f
5:36 7 8 mph 1025.3mb 40f 30f
5:30 7 8 mph 1025.2mb 40f 30f
5:24 7 9 mph 1025.3mb 40f 30f
5:18 7 9 mph 1025.3mb 40f 30f
5:12 7 9 mph 1025.3mb 40f 30f
5:06 7 9 mph 1025.3mb 40f 30f
5:00 7 9 mph 1025.3mb 40f 30f
4:36 7 9 mph 1025.2mb 40f 30f
4:30 7 10 mph 1025.2mb 40f 30f
4:24 7 10 mph 1025.2mb 40f 30f
4:18 8 10 mph 1025.2mb 40f 31f
4:12 8 11 mph 1025.2mb 41f 30f
4:06 7 11 mph 1025.2mb 41f 30f
4:00 7 10 mph 1025.1mb 41f 30f
3:36 8 9 mph 1025.2mb 41f 31f
3:30 6 9 mph 1025.3mb 42f 31f
3:24 7 9 mph 1025.4mb 42f 31f
3:18 7 8 mph 1025.4mb 42f 31f
3:12 7 9 mph 1025.5mb 42f 31f
3:06 7 9 mph 1025.6mb 43f 31f
3:00 6 8 mph 1025.7mb 43f 31f
2:36 6 8 mph 1025.8mb 44f 31f
2:30 7 9 mph 1025.8mb 45f 31f
2:24 7 8 mph 1025.7mb 45f 31f
2:18 6 8 mph 1025.7mb 45f 31f
2:12 6 7 mph 1025.7mb 45f 31f
2:06 6 8 mph 1025.7mb 45f 31f
2:00 6 8 mph 1025.6mb 45f 31f
1:36 5 8 mph 1025.5mb 46f 31f
1:30 6 7 mph 1025.6mb 46f 31f
1:24 6 8 mph 1025.5mb 46f 31f
1:18 6 7 mph 1025.5mb 46f 31f
1:12 6 7 mph 1025.6mb 46f 31f
1:06 6 8 mph 1025.6mb 46f 31f
1:00 5 8 mph 1025.5mb 46f 31f
12:36 6 8 mph 1025.4mb 46f 32f
12:30 5 8 mph 1025.2mb 46f 32f
12:24 7 9 mph 1025.1mb 46f 32f
12:18 6 8 mph 1025.1mb 46f 32f
12:12 6 8 mph 1025mb 46f 31f
12:06 5 8 mph 1024.9mb 46f 32f
12:00 5 8 mph 1024.9mb 46f 32f
ven. 02/24 11:36 7 8 mph 1024.7mb 46f 32f
11:30 6 8 mph 1024.7mb 46f 32f
11:24 7 9 mph 1024.7mb 46f 32f
11:18 6 9 mph 1024.7mb 46f 32f
11:12 7 8 mph 1024.7mb 46f 32f
11:06 5 8 mph 1024.7mb 46f 33f
11:00 6 8 mph 1024.7mb 46f 33f
10:36 7 11 mph 1024.5mb 45f 33f
10:30 7 9 mph 1024.4mb 45f 33f
10:24 7 10 mph 1024.4mb 45f 33f
10:18 7 9 mph 1024.4mb 45f 33f
10:12 7 9 mph 1024.4mb 45f 33f
10:06 6 9 mph 1024.4mb 45f 33f
10:00 6 9 mph 1024.4mb 45f 33f
9:36 6 9 mph 1024.3mb 45f 34f
9:30 7 8 mph 1024.3mb 45f 34f
9:24 6 8 mph 1024.3mb 45f 34f
9:18 6 9 mph 1024.3mb 45f 34f
9:12 7 8 mph 1024.3mb 44f 34f
9:06 6 7 mph 1024.2mb 44f 34f
9:00 6 8 mph 1024.1mb 44f 34f
8:36 3 6 mph 1023.9mb 41f 34f
8:30 3 6 mph 1023.8mb 40f 34f
8:24 5 6 mph 1023.8mb 40f 34f
8:18 6 7 mph 1023.6mb 40f 33f
8:12 3 6 mph 1023.6mb 40f 34f
8:06 5 6 mph 1023.5mb 40f 34f
8:00 3 7 mph 1023.4mb 40f 34f
7:36 3 5 mph 1023.4mb 40f 35f
7:30 5 6 mph 1023.4mb 40f 35f
7:24 5
mph
1023.4mb 40f 34f
7:18 3 5 mph 1023.4mb 40f 35f
7:12 3 5 mph 1023.4mb 40f 35f
7:06 3 5 mph 1023.4mb 40f 35f
7:00 3 5 mph 1023.3mb 40f 35f
6:36 3 5 mph 1023.1mb 40f 36f
6:30 3 6 mph 1023.1mb 40f 36f
6:24 3 5 mph 1022.9mb 40f 36f
6:18 3 5 mph 1022.9mb 40f 37f
6:12 3 5 mph 1022.8mb 41f 37f
6:06 3 6 mph 1022.8mb 41f 37f
6:00 2 5 mph 1022.7mb 41f 37f
5:36 2 5 mph 1022.4mb 40f 39f
5:30 1 2 mph 1022.3mb 40f 39f
5:24  -  5 mph 1022.2mb 40f 39f
5:18 2 5 mph 1022.2mb 40f 39f
5:12 2 3 mph 1022.3mb 40f 39f
5:06 2 6 mph 1022.3mb 40f 38f
5:00 3 6 mph 1022.2mb 40f 38f
4:54 3
mph
1022.1mb 40f 40f
4:48 1 2 mph 1022.1mb 40f 39f
4:36 2 6 mph 1022mb 40f 39f
4:30 3 5 mph 1022mb 40f 38f
4:24 5 6 mph 1021.9mb 40f 37f
4:18 1 2 mph 1022mb 40f 37f
4:12  -  1 mph 1022mb 40f 37f
4:06  -  3 mph 1022mb 40f 37f
4:00 1 5 mph 1022mb 40f 37f
3:54 2 3 mph 1021.9mb 40f 37f
3:48 2 5 mph 1021.9mb 40f 37f
3:36 3 8 mph 1021.8mb 40f 37f
3:30 5 8 mph 1021.8mb 40f 38f
3:24 6 8 mph 1021.7mb 40f 38f
3:18 3 7 mph 1021.7mb 40f 38f
3:12 3 6 mph 1021.6mb 40f 38f
3:06 2 5 mph 1021.6mb 40f 38f
3:00 3 5 mph 1021.5mb 41f 38f
2:54 2 7 mph 1021.5mb 41f 38f
2:48 6 9 mph 1021.5mb 41f 39f
2:36 3 7 mph 1021.2mb 41f 42f
2:30 5 10 mph 1021.2mb 41f 42f
2:24 8 10 mph 1021mb 42f 42f
2:18 7 10 mph 1020.9mb 42f 42f
2:12 8 11 mph 1020.9mb 42f 42f
2:06 9 10 mph 1020.9mb 42f 42f
2:00 8 10 mph 1020.9mb 43f 42f
1:54 8 10 mph 1020.9mb 44f 42f
1:48 8 11 mph 1020.9mb 44f 41f
1:36 9 13 mph 1021mb 45f 42f
1:30 7 11 mph 1021mb 45f 41f
1:24 6 9 mph 1021.1mb 45f 41f
1:18 2 8 mph 1021.1mb 46f 41f
1:12 5 7 mph 1021.1mb 46f 41f
1:06 2 6 mph 1021.1mb 46f 40f
1:00 7 10 mph 1021.1mb 46f 41f
12:54 7 11 mph 1021.1mb 46f 41f
12:48 8 11 mph 1021mb 46f 41f
12:36 5 8 mph 1021.1mb 46f 40f
12:30 5 6 mph 1021mb 46f 41f
12:24 2 3 mph 1021mb 46f 40f
12:18 3 7 mph 1021mb 46f 41f
12:12  -  5 mph 1021mb 46f 40f
12:06 5 6 mph 1020.9mb 46f 40f
12:00 2 8 mph 1020.9mb 46f 40f
11:54 3 6 mph 1020.9mb 46f 40f
11:48 2 3 mph 1020.9mb 46f 40f
11:36 5 10 mph 1020.8mb 46f 39f
11:30 5 9 mph 1020.8mb 46f 39f
11:24 6 10 mph 1020.8mb 46f 39f
11:18 3 8 mph 1020.7mb 46f 39f
11:12 3 7 mph 1020.7mb 46f 39f
11:06 5 7 mph 1020.7mb 46f 39f
11:00 5 6 mph 1020.6mb 46f 38f
10:54 3 9 mph 1020.5mb 46f 38f
10:48 2 8 mph 1020.5mb 46f 38f
10:36 5 6 mph 1020.4mb 46f 37f
10:30 3 6 mph 1020.4mb 46f 37f
10:24 3 6 mph 1020.4mb 46f 36f
10:18 3 6 mph 1020.3mb 46f 36f
10:12 3 6 mph 1020.3mb 46f 36f
10:06 3 6 mph 1020.2mb 46f 35f
10:00 5 6 mph 1020.2mb 46f 35f
9:54 3 6 mph 1020.1mb 46f 35f
9:48 3 6 mph 1020.1mb 46f 35f
9:36 2 5 mph 1020mb 46f 35f
9:30 2 5 mph 1019.9mb 46f 35f
9:24 3 6 mph 1019.9mb 46f 34f
9:18 3 6 mph 1019.8mb 46f 34f
9:12 5 6 mph 1019.8mb 46f 34f
9:06 6 7 mph 1019.8mb 46f 34f
9:00 6 7 mph 1019.7mb 46f 34f
8:54 3 5 mph 1019.7mb 46f 34f
8:48 3 6 mph 1019.7mb 46f 33f
8:36 5 7 mph 1019.7mb 46f 33f
8:30 3 6 mph 1019.7mb 47f 33f
8:24 3 6 mph 1019.7mb 47f 33f
8:18 5 6 mph 1019.6mb 47f 33f
8:12 5 6 mph 1019.6mb 47f 33f
8:06 5 7 mph 1019.6mb 46f 33f
8:00 5 7 mph 1019.6mb 46f 33f
7:54 5 7 mph 1019.6mb 46f 33f
7:48 5 6 mph 1019.5mb 46f 33f
7:36 6 7 mph 1019.5mb 46f 33f
7:30 6 7 mph 1019.5mb 47f 33f
7:24 6 7 mph 1019.5mb 46f 33f
7:18 5 7 mph 1019.4mb 46f 33f
7:12 5 7 mph 1019.4mb 46f 33f
7:06 5 8 mph 1019.4mb 46f 33f
7:00 5 6 mph 1019.4mb 46f 33f
6:54 5 6 mph 1019.3mb 46f 33f
6:48 5 6 mph 1019.4mb 46f 33f
6:36 5 6 mph 1019.4mb 45f 33f
6:30 3 6 mph 1019.4mb 45f 33f
6:24 3 5 mph 1019.5mb 44f 33f
6:18 3 5 mph 1019.5mb 44f 33f
6:12 3 6 mph 1019.5mb 43f 33f
6:06 3 6 mph 1019.5mb 42f 33f
6:00 3 5 mph 1019.5mb 42f 33f
5:54 3 5 mph 1019.5mb 42f 33f
5:48 2 3 mph 1019.6mb 42f 33f
5:36 3 5 mph 1019.7mb 42f 33f
5:30 3 5 mph 1019.7mb 42f 33f
5:24 3 6 mph 1019.7mb 42f 33f
5:18 3 7 mph 1019.7mb 42f 33f
5:12 3 6 mph 1019.7mb 42f 33f
5:06 3 6 mph 1019.8mb 42f 33f
5:00 3 6 mph 1019.8mb 42f 33f
4:54 2 5 mph 1019.9mb 42f 33f
4:48 3 6 mph 1019.9mb 42f 33f
4:36 3 6 mph 1019.9mb 42f 33f
4:30 5 6 mph 1019.9mb 42f 33f
4:24 3 6 mph 1019.9mb 42f 33f
4:18 5 6 mph 1020mb 42f 32f
4:12 3 6 mph 1020mb 42f 32f
4:06 5
mph
1020mb 42f 32f
4:00 3 5 mph 1020.1mb 42f 32f
3:54 2 3 mph 1020.2mb 43f 32f
3:48 3
mph
1020.2mb 43f 32f
3:36  -  3 mph 1020.3mb 43f 32f
3:30  -  1 mph 1020.3mb 43f 32f
3:24  -  3 mph 1020.3mb 44f 32f
3:18  -  3 mph 1020.3mb 44f 33f
3:12 1 5 mph 1020.4mb 44f 32f
3:06 3 5 mph 1020.4mb 44f 32f
3:00 2 5 mph 1020.5mb 44f 33f
2:54 3 5 mph 1020.5mb 44f 33f
2:48 5 6 mph 1020.5mb 44f 33f
2:36 3 6 mph 1020.6mb 44f 33f
2:30 3 6 mph 1020.6mb 44f 33f
2:24 2 6 mph 1020.6mb 44f 33f
2:18 5 7 mph 1020.6mb 45f 33f
2:12 5 7 mph 1020.6mb 45f 33f
2:06 6 7 mph 1020.7mb 45f 33f
2:00 3 8 mph 1020.7mb 46f 33f
1:54 5 7 mph 1020.7mb 46f 33f
1:48 3 7 mph 1020.7mb 46f 33f
1:36 5 7 mph 1020.8mb 46f 33f
1:30 5 9 mph 1020.8mb 46f 33f
1:24 7 9 mph 1020.7mb 46f 33f
1:18 6 7 mph 1020.7mb 47f 33f
1:12 6 9 mph 1020.6mb 46f 33f
1:06 5 8 mph 1020.6mb 47f 33f
1:00 6 8 mph 1020.7mb 47f 33f
12:54 6 8 mph 1020.7mb 47f 33f
12:48 7 8 mph 1020.8mb 47f 33f
12:36 6 8 mph 1021mb 47f 33f
12:30 6 7 mph 1021.1mb 47f 33f
12:24 6 7 mph 1021.1mb 47f 33f
12:18 6 7 mph 1021.1mb 47f 33f
12:12 5 8 mph 1021.2mb 47f 33f
12:06 7 8 mph 1021.3mb 47f 33f
12:00 6 8 mph 1021.6mb 47f 33f
jeu. 02/23 11:54 5 7 mph 1021.7mb 47f 32f
11:48 6 8 mph 1021.7mb 47f 32f
11:36 3 8 mph 1021.7mb 47f 32f
11:30 7 10 mph 1021.7mb 47f 31f
11:24 8 11 mph 1021.6mb 47f 31f
11:18 9 11 mph 1021.6mb 47f 31f
11:12 9 13 mph 1021.6mb 47f 31f
11:06 9 11 mph 1021.6mb 47f 31f
11:00 8 10 mph 1021.7mb 47f 31f
10:54 8 10 mph 1021.8mb 47f 31f
10:48 8 10 mph 1021.9mb 47f 31f
10:36 8 10 mph 1022mb 46f 31f
10:30 9 11 mph 1022.1mb 47f 31f
10:24 9 11 mph 1022.1mb 46f 32f
10:18 8 11 mph 1022.2mb 47f 32f
10:12 8 10 mph 1022.2mb 46f 32f
10:06 8 10 mph 1022.2mb 46f 32f
10:00 9 10 mph 1022.3mb 46f 32f
9:54 7 9 mph 1022.3mb 46f 32f
9:48 8 11 mph 1022.3mb 46f 32f
9:36 7 10 mph 1022.5mb 46f 33f
9:30 8 10 mph 1022.5mb 46f 33f
9:24 8 10 mph 1022.5mb 46f 33f
9:18 7 9 mph 1022.6mb 46f 33f
9:12 7 9 mph 1022.5mb 46f 34f
9:06 7 9 mph 1022.5mb 46f 34f
9:00 8 9 mph 1022.5mb 46f 34f
8:36 6 7 mph 1022.5mb 46f 35f
8:30 5 9 mph 1022.5mb 46f 35f
8:24 6 8 mph 1022.4mb 45f 35f
8:18 6 8 mph 1022.5mb 45f 35f
8:12 5 7 mph 1022.5mb 44f 35f
8:06 6 8 mph 1022.5mb 44f 36f
8:00 6 8 mph 1022.6mb 44f 36f
7:54 7 9 mph 1022.6mb 43f 36f
7:48 7 8 mph 1022.6mb 42f 36f
7:36 7 9 mph 1022.7mb 41f 37f
7:30 5 7 mph 1022.7mb 41f 37f
7:24 6 8 mph 1022.8mb 41f 37f
7:18 3 5 mph 1022.8mb 42f 37f
7:12 2 5 mph 1022.9mb 42f 37f
7:06 3 6 mph 1022.9mb 42f 37f
7:00 1 6 mph 1022.9mb 42f 38f
6:54 2 5 mph 1022.9mb 42f 38f
6:48 3 6 mph 1023mb 41f 38f
6:36 2 6 mph 1023mb 42f 40f
6:30 3 9 mph 1023.1mb 42f 41f
6:24 9 13 mph 1023.1mb 42f 42f
6:18 9 11 mph 1023mb 42f 42f
6:12 7 11 mph 1023mb 42f 42f
6:06 7 11 mph 1023.1mb 42f 42f
6:00 7 9 mph 1023.2mb 42f 42f
5:54 7 11 mph 1023.2mb 42f 42f
5:48 9 11 mph 1023.3mb 42f 42f
5:36 9 10 mph 1023.3mb 41f 42f
5:30 8 9 mph 1023.3mb 41f 42f
5:24 6 9 mph 1023.4mb 41f 42f
5:18 6 9 mph 1023.5mb 41f 42f
5:12 9 11 mph 1023.6mb 41f 42f
5:06 9 13 mph 1023.6mb 41f 42f
5:00 10 13 mph 1023.6mb 41f 42f
4:54 8 10 mph 1023.6mb 41f 42f
4:48 9 11 mph 1023.6mb 41f 43f
4:36 8 9 mph 1023.6mb 40f 43f
4:30 6 7 mph 1023.5mb 41f 42f
4:24 6 8 mph 1023.5mb 41f 42f
4:18 7 8 mph 1023.5mb 41f 42f
4:12 6 8 mph 1023.5mb 41f 42f
4:06 6 9 mph 1023.5mb 41f 43f
4:00 5 8 mph 1023.5mb 41f 42f
3:54 5 7 mph 1023.5mb 41f 42f
3:48 5 6 mph 1023.5mb 41f 42f
3:36 3 6 mph 1023.5mb 41f 42f
3:30 5 7 mph 1023.5mb 40f 42f
3:24 6 9 mph 1023.6mb 42f 42f
3:18 8 10 mph 1023.7mb 42f 41f
3:12 9 13 mph 1023.8mb 41f 41f
3:06 10 13 mph 1023.9mb 42f 41f
3:00 10 14 mph 1023.9mb 42f 41f
2:54 11 15 mph 1024.1mb 42f 40f
2:48 13 17 mph 1024.2mb 42f 40f
2:36 14 17 mph 1024.4mb 42f 40f
2:30 14 18 mph 1024.4mb 42f 41f
2:24 13 16 mph 1024.4mb 42f 42f
2:18 7 9 mph 1024.2mb 42f 42f
2:12 8 10 mph 1024.2mb 42f 42f
2:06 6 9 mph 1024.3mb 42f 42f
2:00 7 9 mph 1024.2mb 43f 42f
1:54 6 8 mph 1024.3mb 43f 42f
1:48 8 9 mph 1024.4mb 43f 42f
1:36 7 9 mph 1024.3mb 44f 42f
1:30 6 7 mph 1024.3mb 44f 42f
1:24 6 9 mph 1024.4mb 44f 42f
1:18 6 8 mph 1024.4mb 45f 42f
1:12 7 10 mph 1024.4mb 45f 42f
1:06 7 9 mph 1024.5mb 46f 42f
1:00 7 9 mph 1024.6mb 46f 42f
12:54 7 9 mph 1024.6mb 47f 41f
12:48 8 9 mph 1024.6mb 47f 42f
12:36 7 9 mph 1024.8mb 47f 41f
12:30 8 9 mph 1024.8mb 47f 41f
12:24 7 9 mph 1024.8mb 47f 41f
12:18 7 8 mph 1024.9mb 47f 41f
12:12 6 7 mph 1025mb 47f 41f
12:06 6 8 mph 1025mb 47f 41f
12:00 6 7 mph 1025.1mb 47f 41f
11:54 7 8 mph 1025.2mb 47f 41f
11:48 6 8 mph 1025.2mb 48f 41f
11:36 6 7 mph 1025.3mb 48f 41f
11:30 5 8 mph 1025.3mb 48f 41f
11:24 6 7 mph 1025.2mb 48f 40f
11:18 2 3 mph 1025.3mb 47f 40f
11:12 2 3 mph 1025.3mb 47f 42f
11:06  -  3 mph 1025.2mb 47f 41f
11:00 2 5 mph 1025.2mb 47f 41f
10:54 2 5 mph 1025.2mb 48f 40f
10:48 3 5 mph 1025.1mb 47f 39f
10:36 6 7 mph 1025.1mb 47f 39f
10:30 3 5 mph 1025.2mb 47f 38f
10:24 3 6 mph 1025.2mb 47f 38f
10:18 3 7 mph 1025.2mb 47f 37f
10:12 7 8 mph 1025.2mb 47f 37f
10:06 6 8 mph 1025.1mb 47f 36f
10:00 6 8 mph 1025.2mb 47f 36f
9:54 6 8 mph 1025.2mb 47f 35f
9:48 6 8 mph 1025.1mb 47f 35f
9:36 7 10 mph 1025mb 47f 34f
9:30 8 10 mph 1025mb 47f 34f
9:24 7 9 mph 1025mb 47f 33f
9:18 8 10 mph 1025mb 47f 33f
9:12 8 10 mph 1025mb 47f 33f
9:06 7 10 mph 1025.1mb 47f 33f
9:00 8 10 mph 1025mb 47f 32f
8:54 8 10 mph 1025mb 47f 32f
8:48 8 9 mph 1025mb 47f 32f
8:36 8 10 mph 1024.9mb 47f 31f
8:30 7 9 mph 1024.9mb 47f 31f
8:24 7 10 mph 1024.9mb 47f 31f
8:18 7 8 mph 1024.9mb 47f 31f
8:12 7 10 mph 1024.9mb 47f 31f
8:06 8 10 mph 1024.9mb 47f 30f
8:00 7 9 mph 1024.9mb 47f 30f
7:54 7 10 mph 1024.8mb 47f 30f
7:48 8 11 mph 1024.8mb 47f 30f
7:36 8 10 mph 1024.7mb 47f 30f
7:30 8 11 mph 1024.6mb 47f 30f
7:24 7 10 mph 1024.5mb 47f 30f
7:18 8 11 mph 1024.5mb 47f 30f
7:12 8 10 mph 1024.4mb 47f 30f
7:06 9 11 mph 1024.3mb 47f 30f
7:00 7 10 mph 1024.3mb 47f 30f
6:54 8 10 mph 1024.3mb 47f 30f
6:48 8 10 mph 1024.3mb 47f 30f
6:36 7 10 mph 1024.3mb 47f 30f
6:30 8 10 mph 1024.2mb 47f 30f
6:24 8 10 mph 1024.2mb 47f 30f
6:18 8 9 mph 1024.1mb 47f 30f
6:12 8 10 mph 1024.1mb 47f 30f
6:06 8 11 mph 1024.1mb 47f 30f
6:00 7 10 mph 1024.1mb 47f 30f
5:54 8 10 mph 1024.1mb 46f 30f
5:48 8 10 mph 1024.1mb 46f 30f
5:36 7 10 mph 1024.1mb 46f 30f
5:30 8 10 mph 1024.1mb 45f 30f
5:24 9 11 mph 1024mb 45f 30f
5:18 8 10 mph 1024mb 44f 30f
5:12 9 11 mph 1024.1mb 44f 30f
5:06 8 11 mph 1024.1mb 44f 30f
5:00 8 11 mph 1024.1mb 44f 30f
4:36 8 10 mph 1024mb 43f 30f
4:30 8 10 mph 1024mb 43f 30f
4:24 8 10 mph 1024mb 43f 30f
4:18 9 11 mph 1024mb 43f 30f
4:12 8 10 mph 1024mb 43f 30f
4:06 8 10 mph 1023.9mb 43f 30f
4:00 8 11 mph 1023.9mb 43f 30f
3:54 9 11 mph 1023.9mb 43f 30f
3:48 8 11 mph 1023.9mb 43f 30f
3:36 8 10 mph 1023.9mb 43f 30f
3:30 9 11 mph 1023.9mb 43f 30f
3:24 9 11 mph 1024mb 43f 30f
3:18 9 13 mph 1024mb 43f 30f
3:12 9 11 mph 1024mb 43f 30f
3:06 8 10 mph 1024mb 43f 30f
3:00 9 11 mph 1024mb 43f 30f
2:54 9 11 mph 1024mb 43f 30f
2:48 9 11 mph 1024mb 44f 30f
2:36 9 11 mph 1024mb 44f 30f
2:30 9 11 mph 1024mb 44f 30f
2:24 8 11 mph 1023.9mb 44f 30f
2:18 8 10 mph 1023.9mb 44f 30f
2:12 8 11 mph 1023.9mb 44f 30f
2:06 9 11 mph 1023.9mb 44f 30f
2:00 9 10 mph 1024mb 44f 30f
1:54 9 11 mph 1024mb 45f 30f
1:48 8 10 mph 1024mb 45f 30f
12:54 8 11 mph 1024.1mb 47f 31f
12:48 8 10 mph 1024.2mb 47f 30f
mer. 02/22 11:54 10 13 mph 1024mb 47f 31f
11:48 9 11 mph 1024mb 47f 30f
10:54 8 11 mph 1024mb 47f 31f
10:48 9 11 mph 1024mb 47f 31f
9:54 8 10 mph 1023.8mb 47f 32f
9:48 8 10 mph 1023.8mb 47f 32f
8:54 7 9 mph 1023.6mb 47f 34f
8:48 7 8 mph 1023.5mb 47f 34f
7:54 6 7 mph 1023.1mb 45f 35f
7:48 6 7 mph 1023.1mb 45f 36f
6:54 5 6 mph 1023.1mb 43f 37f
6:48 5
mph
1023.1mb 43f 37f
5:54 6 7 mph 1023mb 43f 42f
5:48 7 9 mph 1023mb 43f 42f
4:54 6 8 mph 1022.9mb 42f 42f
4:48 6 7 mph 1022.9mb 42f 43f
3:54 3 6 mph 1022.8mb 42f 43f
3:48 5
mph
1022.9mb 42f 43f
2:54 2 6 mph 1023.1mb 41f 42f
2:48 3 7 mph - - 42f
1:54 5 6 mph 1023mb 42f 41f
1:48 6 7 mph - - 41f
12:54 5 6 mph 1023.1mb 43f 41f
12:48 6 8 mph 1023.1mb 43f 41f
11:54 7 8 mph 1023.2mb 46f 40f
11:48 7 8 mph 1023.3mb 46f 40f
10:54 6 8 mph 1023.3mb 47f 41f
10:48 3 6 mph 1023.4mb 47f 40f
9:54 5 7 mph 1023.4mb 47f 37f
9:48 5 7 mph 1023.3mb 47f 37f
8:54 5 7 mph 1023.1mb 47f 34f
8:48 5 7 mph 1023.1mb 47f 34f
7:54 5 8 mph 1023.1mb 47f 33f
7:48 6 9 mph 1023mb 47f 33f
6:54 3 7 mph 1022.9mb 47f 33f
6:48 7 9 mph 1022.8mb 47f 34f
5:54 8 9 mph 1022.6mb 47f 33f
5:48 7 9 mph 1022.6mb 47f 33f
4:54 7 8 mph 1022.6mb 46f 33f
4:48 6 9 mph 1022.7mb 45f 33f
2:36 8 9 mph 1022.3mb 43f 34f
2:30 7 8 mph 1022.3mb 43f 34f
2:24 7 8 mph 1022.3mb 43f 34f
2:18 7 9 mph 1022.3mb 43f 35f
2:12 7 8 mph 1022.3mb 43f 35f
2:06 5 6 mph 1022.3mb 43f 35f
2:00 3 7 mph 1022.3mb 43f 36f
1:36 13 20 mph 1022.6mb 43f 35f
1:30 7 11 mph 1022.3mb 43f 34f
1:24 7 10 mph 1022.3mb 43f 35f
1:18 3 9 mph 1022.2mb 44f 35f